Regional Weather Roundup
Issued by NWS Charleston, SC

Current Version | Previous Version | Graphics & Text | Print | Product List | Glossary On
Versions: 1 2 3 4 5 6 7 8 9 10 11 12 13 14 15 16 17 18 19 20 21 22 23 24 25 26 27 28 29 30 31 32 33 34 35 36 37 38 39 40 41 42 43 44 45 46 47 48 49 50
000 ASUS42 KCHS 260112 RWRCHS REGIONAL WEATHER ROUNDUP NATIONAL WEATHER SERVICE CHARLESTON SC 900 PM EDT MON MAY 25 2015 NOTE: "FAIR" INDICATES FEW OR NO CLOUDS BELOW 12,000 FEET WITH NO SIGNIFICANT WEATHER AND/OR OBSTRUCTIONS TO VISIBILITY. NOT ALL STATIONS ARE QUALITY CONTROLLED BY THE NATIONAL WEATHER SERVICE. USE DATA WITH CAUTION...ESPECIALLY DEWPOINT OBSERVATIONS. SCZ027-030-031-034>040-042>050-260200- ...SOUTHEAST SOUTH CAROLINA... CITY SKY/WX TMP DP RH WIND PRES REMARKS N CHARLESTON PTCLDY 74 67 78 SE8 30.26S WATERFRONT PAR N/A 76 70 81 E8 30.23S MOUNT PLEASANT FAIR 72 70 94 CALM 30.26S JOHNS ISLAND CLEAR 73 70 88 E6 30.26S PINOPOLIS N/A 79 68 69 VRB2 30.19R MONCKS CORNER FAIR 75 66 73 SE5 30.26S SUMMERVILLE FAIR 73 68 83 SE3 30.26S BEAUFORT MCAS PTCLDY 75 70 84 E8 30.24S BEAUFORT ARPT FAIR 73 72 94 CALM 30.24S HILTON HEAD IS MOCLDY 75 72 88 NE7 30.25S WALTERBORO CLEAR 72 68 88 E6 30.25S ALLENDALE FAIR 77 68 73 SE6 30.22S ...SOUTHERN MIDLANDS AND PEE DEE... CITY SKY/WX TMP DP RH WIND PRES REMARKS GEORGETOWN NOT AVBL KINGSTREE NOT AVBL ORANGEBURG PTCLDY 75 66 73 SE6 30.24S BARNWELL FAIR 79 66 65 SE7 30.23S AIKEN MOCLDY 77 63 61 SE7 30.25S MANNING FAIR 70 63 78 CALM 30.26S COLUMBIA PTCLDY 78 64 61 SE8 30.22S SUMTER NOT AVBL FLORENCE CLEAR 75 65 70 SE8 30.26R MYRTLE BEACH CLEAR 75 64 69 SE8 30.29 N MYRTLE BEACH CLEAR 75 66 73 VRB5 30.27F $$ GAZ063-065-086>088-099>101-113>116-118-119-134>141-150-260200- ...SOUTHEAST GEORGIA... CITY SKY/WX TMP DP RH WIND PRES REMARKS SAVANNAH ARPT PTCLDY 76 68 76 E8 30.23S HUNTER AAF NOT AVBL FORT STEWART PTCLDY 74 69 85 CALM 30.20S STATESBORO MOCLDY 75 70 85 SE6 30.22S SYLVANIA MOCLDY 77 70 79 SE3 30.23S CLAXTON FAIR 75 68 78 SE6 30.22S ...CSRA...CENTRAL AND FAR SOUTHEAST GEORGIA... CITY SKY/WX TMP DP RH WIND PRES REMARKS THOMSON CLOUDY 79 72 78 CALM 30.25F AUGUSTA-BUSH MOCLDY 76 68 76 SE8 30.20S AUGUSTA-DANIEL MOCLDY 80 67 64 SE8 30.22R SWAINSBORO FAIR 79 72 78 SE9 30.21S VIDALIA MOCLDY 77 68 73 SE6 30.20F EASTMAN FAIR 74 74 100 E3 30.20S HAZLEHURST FAIR 80 71 74 SE6 30.18F ALMA PTCLDY 77 69 76 E8 30.19S WAYCROSS CLOUDY 78 72 81 SE12 30.19S JESUP FAIR 79 72 78 SE5 30.21F BAXLEY FAIR 79 70 73 SE6 30.19S BRUNSWICK PTCLDY 77 70 78 E6 30.22S SAINT SIMONS NOT AVBL $$ SCZ027-028-034-036>038-045-046-048>050-GAZ119-141-260200- ...LAKE AND SUPPLEMENTAL COASTAL OBSERVATIONS... STATION/POSITION TIME TEMP WIND PRES WAVE SWELL AIR SEA DIR/SP/G HT/PER HT/PER/DIR (UTC) (F) (DEG/KT/KT) (MB) (FT/S) (FT/S/D) UPR LAKE MARION NOT AVBL WINYAH BAY NOT AVBL LAKE MURRAY 0000 80 100/ 8/ 12 1022.4F ACE BASIN NERRS NOT AVBL FORT PULASKI 0000 76 79 80/ 12/ 13 1024.3F SAPELO ISLAND 0000 77 90/ 7 1023.0S $$ ANZ835-935-AMZ111-154-330-350-352-354-370-450-454-472-260200- ...C-MAN AND BUOY OBSERVATIONS... STATION/POSITION TIME TEMP WIND PRES WAVE SWELL AIR SEA DIR/SP/G HT/PER HT/PER/DIR (UTC) (F) (DEG/KT/KT) (MB) (FT/S) (FT/S/D) BUOY 41004 0050 76 75 90/ 14/ 16 1024.0F 4/ 6 2/ 6 BUOY 41008 0050 76 76 90/ 10/ 12 1023.4F 4/ 8 3/100/ 8 FOLLY BEACH CMAN 0100 75 100/ 11/ 13 1024.7S CAPERS NEARSHORE 0008 75 110/ 10/ 14 1024.6F FRIPP NEARSHORE 0000 76 100/ 12/ 14 1023.5R STATION/POSITION TIME TEMP WIND PRES WAVE SWELL AIR SEA DIR/SP/G HT/PER HT/PER/DIR (UTC) (F) (DEG/KT/KT) (MB) (FT/S) (FT/S/D) 5E ST. MARYS GA 0021 79 N/A 3/ 8 FRYING PAN BUOY 0050 76 74 130/ 10/ 12 1026.3F 3/ 6 3/140/ 6 BUOY 41025 0050 74 77 160/ 12/ 16 1026.7F 2/ 7 2/ 90/ 7 CAPE LOOKOUT NC 0000 74 160/ 8/ 9 1026.1F BUOY 41002 0050 75 74 130/ 14/ 16 1026.3R 3/ 7 2/ 80/ 7 BUOY 41010 0020 79 81 100/ 10/ 14 1023.3R ST AUGUSTINE FL 0100 78 79 120/ 10/ 11 1023.1R $$

USA.gov is the U.S. government's official web portal to all federal, state and local government web resources and services.